Hourly Data Report for August 16, 2000

SHERBROOKE A
QUEBEC

45°26'00.000" N
71°41'00.000" W
241.40 m
7028124
71610
YSC

Download Data

Hourly Data (August 2000)
Hourly Data Report for August 16, 2000
TIME
LST
Temp Definition
°C
Dew Point Definition
°C
Rel Hum Definition
%
Precip. Amount Definition
mm

Wind Dir Definition
10's deg

Wind Spd Definition
km/h
Visibility Definition
km
Stn Press Definition
kPa
Hmdx Definition


Wind Chill Definition


Weather Definition


00:00 17.3 15.3 88   11 4 15.0 98.19      
01:00 16.4 14.7 90   13 7 15.0 98.06      
02:00 16.7 14.8 89   14 4 15.0 98.02      
03:00 16.8 15.2 90   15 4 15.0 97.92      
04:00 18.0 16.2 89   23 6 3.5 97.96     Moderate Rain
05:00 17.3 16.8 97   13 7 3.2 97.89     Moderate Rain
06:00 17.4 16.9 97   11 7 1.9 97.89      
07:00 17.5 17.0 97   12 15 3.2 97.86     Rain, Fog
08:00 17.7 17.0 96   14 9 24.1 97.79     Cloudy
09:00 18.7 17.7 94   20 6 24.1 97.73     Cloudy
10:00 19.0 17.8 93   19 13 9.7 97.73     Rain Showers, Fog
11:00 18.7 18.0 96   23 11 24.1 97.73     Mostly Cloudy
12:00 20.9 19.2 90   21 15 24.1 97.69 28   Mostly Cloudy
13:00 22.5 17.3 72   26 22 24.1 97.73 28   Mostly Cloudy
14:00 21.3 15.5 70   29 24 24.1 97.79 26   Mainly Clear
15:00 21.6 14.8 65   32 11 24.1 97.79 25   Mostly Cloudy
16:00 17.2 14.7 85   27 17 19.3 97.89     Thunderstorms,Rain Showers
17:00 17.6 14.0 79   29 7 15.0 97.92      
18:00 18.2 14.4 78   26 4 15.0 97.99      
19:00 16.9 13.4 80   25 13 15.0 98.02      
20:00 15.6 13.4 87   26 15 15.0 98.09      
21:00 15.3 12.9 86   26 11 15.0 98.12      
22:00 14.1 12.7 91   26 11 15.0 98.16     Rain
23:00 13.7 12.2 91   26 15 15.0 98.16      

Notes on Data Quality.

Legend

  • E = Estimated
  • M = Missing
  • NA = Not Available*
  • [empty] = Indicates an unobserved value
Date modified: